McCarran International Airport Las Vegas US
ICAO: KLAS
IATA: LAS
Category: Large
Scheduled Services: Yes

Elevation: 2181 ft
TransAlt. 18000 ft.

Airport Communications:
LAS VEGAS APP:125.025
ATIS:132.4
CLNC DEL:118
LAS VEGAS DEP:125.02
GND:121.1
:119.9
UNICOM:122.95

KLAS Zoom In..

If you have problems with the map follow the link
https://www.worldairports.se/pages/airport.php?
ICAO=KLAS

Runways:

(A) RW 01L length 8988 ft width 150 ft
ILS 110.10 / hdg 10

(B) RW 01R length 9771 ft width 150 ft
---- / hdg 10

(C) RW 07L length 14512 ft width 150 ft
---- / hdg 75

(D) RW 07R length 10525 ft width 150 ft
---- / hdg 75

(E) RW 19L length 9771 ft width 150 ft
---- / hdg 190

(F) RW 19R length 8988 ft width 150 ft
---- / hdg 190

(G) RW 25L length 10525 ft width 150 ft
ILS 111.75 / hdg 255

(H) RW 25R length 14512 ft width 150 ft
ILS 110.30 / hdg 255

Location; KLAS
Day. 19 / Time. 13.56 Zulu
* Altimeter: 30.19
* Temperature: 06° c. 42.8°f.
* Wind from: 210° Speed 03 kn.
Dewpoint: -06° c.
Visibility: 10 Statute Miles.
Clouds: Few 25000 ft.

KLAS 191356Z 21003KT 10SM FEW250 06/M06 A3019 RMK AO2 SLP220 T00561061


Wind From 210°
Speed 03 kn.

 
 
jpsmedia.com for Web Design worldairports.se 2018   terms of use